Regional Weather Roundup
Issued by NWS

Home | Current Version | Previous Version | Text Only | Print | Product List | Glossary Off
Versions: 1 2 3 4 5 6 7 8 9 10 11 12 13 14 15 16 17 18 19 20 21 22 23 24 25 26 27 28 29 30 31 32 33 34 35 36 37 38 39 40 41 42 43 44 45 46 47 48 49 50

503
ASUS43 KMPX 251001
RWRMN
WEATHER ROUNDUP FOR MINNESOTA
NATIONAL WEATHER SERVICE TWIN CITIES/CHANHASSEN MN
500 AM CDT SUN SEP 25 2016


NOTE: "FAIR" INDICATES FEW OR NO CLOUDS BELOW 12,000 FEET WITH NO
SIGNIFICANT WEATHER AND/OR OBSTRUCTIONS TO VISIBILITY. N/A MEANS
CURRENT SKY AND/OR WEATHER CONDITIONS ARE NOT AVAILABLE.

MNZ060>063-068>070-251100-
   Twin Cities Metro

CITY           SKY/WX    TMP DP  RH WIND       PRES   REMARKS
TWIN CITIES    CLOUDY    68  65  90 S12       29.90F FOG
ST PAUL        CLOUDY    67  65  93 SE8       29.90F
CRYSTAL        CLOUDY    68  64  87 S10       29.88F FOG
BLAINE         CLOUDY    70  68  94 S10G17    29.89F
LAKEVILLE      CLOUDY    66  66 100 S3        29.91S FOG
EDEN PRAIRIE   LGT RAIN  70  66  87 S9        29.88F
LAKEVILLE      CLOUDY    66  66 100 S3        29.91S FOG
SOUTH ST PAUL  PTCLDY    67  66  94 S5        29.90F FOG
LAKE ELMO      CLOUDY    66  64  94 SE8       29.92F
$$
MNZ001>005-007-008-013>017-022>024-027-028-251100-
   Northwest Minnesota

CITY           SKY/WX    TMP DP  RH WIND       PRES   REMARKS
BEMIDJI        HVY RAIN  64  64  97 S8        29.78F
HALLOCK        CLEAR     64  63  94 S14       29.68F
ROSEAU         CLOUDY    64  61  88 S8        29.74S
WARROAD        CLOUDY    64  61  88 S12       29.75F
THIEF RVR FALL PTCLDY    63  61  93 S9        29.75F
CROOKSTON      CLEAR     63  61  94 S10       29.74F
FOSSTON        PTCLDY    63  61  94 S12       29.77F
DETROIT LAKES  PTCLDY    61  54  77 SW10      29.81F
MOORHEAD       CLEAR     55  52  88 S8        29.80S
PARK RAPIDS    CLOUDY    66  63  90 S9        29.79F
MAHNOMEN       FAIR      61  60  96 SW12      29.78S
$$
MNZ006-009>011-018-025>026-251100-
   North Central Minnesota

CITY           SKY/WX    TMP DP  RH WIND       PRES   REMARKS
BAUDETTE       CLOUDY    63  62  97 SE6       29.78F
FLAG ISLAND    DRIZZLE   63  61  94 S14       29.74F
INTL FALLS     LGT RAIN  62  60  93 SE8G17    29.82F
WASKISH        DRIZZLE   64  63  94 S6        29.79F
BIG FORK       LGT RAIN  63  61  94 SE5       29.83F
GRAND RAPIDS   LGT RAIN  63  62  97 SE10      29.86F FOG
COOK           RAIN      61  61 100 SE9G16    29.88F
WALKER         RAIN      64  63  97 S6        29.80F
$$
MNZ012-019>021-037-251100-
   Northeast Minnesota

CITY           SKY/WX    TMP DP  RH WIND       PRES   REMARKS
DULUTH         CLOUDY    60  59  96 SE12      29.92F
ELY            DRIZZLE   59  57  94 SE7       29.92F
HIBBING        LGT RAIN  60  60 100 SE10      29.88F FOG
EVELETH        DRIZZLE   60  59  97 SE10      29.91F
DULUTH HARBOR  CLOUDY    61  57  88 E9        29.92F
TWO HARBORS    CLOUDY    63  57  82 E9        29.93F
SILVER BAY     CLOUDY    61  57  88 E5        29.95F
GRAND MARAIS     N/A     61  58  90 NE6       29.99F
G MARAIS ARPRT CLOUDY    55  52  88 SE7       30.01F
$$
MNZ029>031-032-039>041-046>048-054>057-064-251100-
   West Central Minnesota

CITY           SKY/WX    TMP DP  RH WIND       PRES   REMARKS
FERGUS FALLS   PTCLDY    55  52  88 SW8       29.85S
MORRIS         PTCLDY    55  52  88 S5        29.86S
ALEXANDRIA     CLOUDY    61  53  75 W12       29.86S
ELBOW LAKE     FAIR      54  50  85 W6        29.86R
GLENWOOD       CLOUDY    59  52  77 W14       29.87R
BENSON         CLOUDY    57  48  72 W7        29.88S
MADISON          N/A     57  48  72 SW8       29.89S
WILLMAR        LGT RAIN  57  57 100 W7        29.90R
$$
MNZ033>034-036-042>043-049>051-058-059-251100-
   Central Minnesota

CITY           SKY/WX    TMP DP  RH WIND       PRES   REMARKS
ST CLOUD       LGT RAIN  67  67 100 S13       29.85S
SAUK CENTRE    DRIZZLE   65  64  96 SW13      29.85S
PAYNESVILLE    LGT RAIN  66  67 100 S7        29.87S
AITKIN         MIX PCPN  66  63  88 SE12      29.82F
PINE RIVER     LGT RAIN  64  64 100 S8        29.85F
BRAINERD       LGT RAIN  65  64  97 S9        29.82F FOG
STAPLES        DRIZZLE   64  64 100 S5        29.82F
LONG PRAIRIE   LGT RAIN  64  64 100 S8        29.84S
LITTLE FALLS   LGT RAIN  64  63  94 S8        29.84S
BUFFALO        CLOUDY    68  65  88 S7        29.88F
MAPLE LAKE     HVY RAIN  68  67  96 S8        29.87F
HUTCHINSON     LGT RAIN  67  65  94 S5        29.90S
$$
MNZ037-044-045-052-053-251100-
   East Central Minnesota

CITY           SKY/WX    TMP DP  RH WIND       PRES   REMARKS
PRINCETON      CLOUDY    70  66  88 SE9       29.87F
MORA           CLOUDY    64  63  94 SE8       29.89F
CAMBRIDGE      RAIN      70  64  83 SE8       29.86F
MOOSE LAKE     DRIZZLE   63  61  94 S7        29.87F
HINCKLEY       CLOUDY    64  63  94 SE8G16    29.89F
CLOQUET        CLOUDY    61  59  94 SE6       29.90F FOG
MCGREGOR       CLOUDY    63  63 100 SE14      29.86F
$$
MNZ071>073-080-081-089-090-097-098-251100-
   Southwest Minnesota

CITY           SKY/WX    TMP DP  RH WIND       PRES   REMARKS
MONTEVIDEO     CLOUDY    57  57 100 W7        29.91S
GRANITE FALLS  CLOUDY    58  53  83 SW6       29.92R
CANBY          PTCLDY    56  47  72 SW12G17   29.90S
MARSHALL       CLOUDY    57  48  72 W13       29.92R
REDWOOD FALLS  LGT RAIN  60  51  72 W14       29.90R
OLIVIA         CLOUDY    59  54  82 W13       29.89R
PIPESTONE      CLOUDY    54  46  76 W7        29.96S
WINDOM         LGT RAIN  64  63  94 SW10      29.93R
WORTHINGTON    CLOUDY    58  50  75 W12       29.96R
JACKSON        RAIN      63  61  94 SW7       29.95R
TRACY          CLOUDY    58  51  78 W6        29.93R
$$
MNZ065>067-074>077-082>085-091>093-251100-
   South Central Minnesota

CITY           SKY/WX    TMP DP  RH WIND       PRES   REMARKS
MANKATO        LGT RAIN  67  66  97 S10       29.91S
NEW ULM        LGT RAIN  64  63  94 S8        29.90R
ST JAMES       LGT RAIN  66  66 100 SW12G24   29.91F
FAIRMONT       HVY RAIN  67  66  97 SW13      29.93S
GLENCOE        RAIN      68  68 100 S10G18    29.89S
FARIBAULT      CLOUDY    68  66  94 S7        29.93S
OWATONNA       DRIZZLE   68  64  88 S10       29.93F
WASECA         LGT RAIN  68  64  88 S12       29.94S
ALBERT LEA     LGT RAIN  68  66  94 S10G21    29.94F
$$
MNZ078>079-086>088-094>096-251100-
   Southeast Minnesota

CITY           SKY/WX    TMP DP  RH WIND       PRES   REMARKS
ROCHESTER      CLOUDY    67  66  97 S12G18    29.95F FOG
RED WING       CLOUDY    68  64  88 SE6       29.92F
DODGE CENTER   CLOUDY    66  66 100 S12       29.94F FOG
WINONA         CLOUDY    68  64  88 SE8       29.97S
AUSTIN         DRIZZLE   68  64  88 S9        29.94F
PRESTON        CLOUDY    65  63  93 S10       29.97F FOG
$$
ABBREVIATIONS USED IN REMARKS
   TC - TEMPERATURES IN CELSIUS
  WCI - WIND CHILL INDEX
   HX - HEAT INDEX
  VSB - VISIBILITY
$$




USA.gov is the U.S. government's official web portal to all federal, state and local government web resources and services.